GW1727 Weather Reports


Display with metric or nautical units.
time (UTC)temp
F
wind
direction
speed
MPH
gust
MPH
rain 1hr
in
rain 24hr
in
rain mn
in
humidity
%
barometer
mb
20260906201543 90 195 0.0 0.0 0.00 0.13 0.13 44 1008.0
20260906200040 89 154 0.0 0.0 0.00 0.13 0.13 50 1008.3
20260906194538 89 139 0.0 0.0 0.00 0.13 0.13 51 1008.3
20260906193037 88 157 0.0 0.0 0.00 0.13 0.13 52 1008.5
20260906191533 87 165 0.0 0.0 0.00 0.13 0.13 52 1008.5
20260906190032 86 122 0.0 0.0 0.00 0.13 0.13 53 1008.8
20260906184533 85 145 0.0 0.0 0.00 0.13 0.13 55 1009.1
20260906183028 84 154 0.0 0.0 0.00 0.13 0.13 57 1009.3
20260906181529 84 156 0.0 0.0 0.00 0.13 0.13 58 1009.5
20260906180023 82 152 0.0 0.0 0.00 0.13 0.13 64 1009.9
20260906174521 81 154 0.0 0.0 0.00 0.13 0.13 67 1010.2
20260906173020 80 158 0.0 0.0 0.00 0.13 0.13 67 1010.5
20260906171518 79 149 0.0 0.0 0.00 0.13 0.13 69 1010.8
20260906170031 76 154 0.0 0.0 0.00 0.13 0.13 72 1010.6
20260906164518 76 145 0.0 0.0 0.00 0.13 0.13 72 1010.5
20260906163016 76 141 0.0 0.0 0.00 0.13 0.13 75 1011.1
20260906161515 73 141 0.0 0.0 0.00 0.13 0.13 78 1011.3
20260906160016 72 139 0.0 0.0 0.00 0.13 0.13 79 1011.5
20260906154520 72 140 0.0 0.0 0.00 0.13 0.13 80 1011.7
20260906153021 71 139 0.0 0.0 0.00 0.13 0.13 80 1011.8
20260906151512 70 120 0.0 0.0 0.00 0.13 0.13 81 1011.9
20260906150012 70 122 0.0 0.0 0.00 0.13 0.13 81 1011.9
20260906144511 69 117 0.0 0.0 0.00 0.13 0.13 82 1012.1
20260906143011 69 112 0.0 0.0 0.00 0.13 0.13 82 1012.0
20260906141507 69 96 0.0 0.0 0.00 0.13 0.13 82 1011.8
20260906140009 68 82 0.0 0.0 0.00 0.13 0.13 82 1011.5
20260906134511 69 78 0.0 0.0 0.00 0.13 0.13 82 1011.2
20260906133005 69 79 0.0 0.0 0.00 0.13 0.13 82 1011.2
20260906131506 69 83 0.0 0.0 0.00 0.13 0.13 82 1011.3
20260906130002 69 108 0.0 0.0 0.00 0.13 0.13 82 1011.1
20260906124506 69 100 0.0 0.0 0.00 0.13 0.13 82 1011.1
20260906123002 69 114 0.0 0.0 0.00 0.13 0.13 82 1011.2
20260906121501 69 87 0.0 0.0 0.00 0.13 0.13 82 1011.1
20260906120001 69 100 0.0 0.0 0.00 0.13 0.13 82 1011.2
20260906114609 69 91 0.0 0.0 0.00 0.13 0.13 82 1010.9
20260906113057 68 101 0.0 0.0 0.00 0.13 0.13 82 1010.3
20260906111557 68 88 0.0 0.0 0.00 0.13 0.13 82 1010.1
20260906110055 68 73 0.0 0.0 0.00 0.13 0.13 82 1010.2
20260906104555 67 64 0.0 0.0 0.00 0.13 0.13 81 1010.1
20260906103056 67 66 0.0 0.0 0.00 0.13 0.13 81 1010.4
20260906101554 67 45 0.0 0.0 0.06 0.13 0.13 81 1010.3
20260906100056 67 45 0.0 0.0 0.12 0.13 0.13 81 1010.1
20260906094604 67 43 0.0 0.0 0.13 0.13 0.13 81 1010.5
20260906093052 67 46 0.0 0.0 0.13 0.13 0.13 81 1010.4
20260906091601 69 18 0.0 0.0 0.07 0.07 0.07 80 1010.3
20260906090045 69 25 0.0 0.0 0.01 0.01 0.01 79 1009.6
20260906084542 70 354 0.0 0.0 0.00 0.00 0.00 77 1009.8
20260906083038 72 359 0.0 0.0 0.00 0.00 0.00 72 1009.9
20260906081535 77 326 0.0 0.0 0.00 0.00 0.00 64 1009.3
20260906080035 77 239 0.0 0.0 0.00 0.00 0.00 64 1008.5
20260906074536 78 203 0.0 0.0 0.00 0.00 0.00 63 1008.3
20260906073031 78 172 0.0 0.0 0.00 0.00 0.00 63 1008.2
20260906071530 78 201 0.0 0.0 0.00 0.00 0.00 63 1008.2
20260906070029 78 170 0.0 0.0 0.00 0.00 0.00 63 1008.0
20260906064528 78 185 0.0 0.0 0.00 0.00 0.00 64 1008.1
20260906063029 78 154 0.0 0.0 0.00 0.00 0.00 64 1008.3
20260906061526 78 180 0.0 0.0 0.00 0.00 0.00 63 1008.6
20260906060025 78 172 0.0 0.0 0.00 0.00 0.00 63 1008.6
20260906054527 78 200 0.0 0.0 0.00 0.00 0.00 62 1008.3
20260906053022 78 177 0.0 0.0 0.00 0.00 0.00 63 1008.2
20260906051518 77 156 0.0 0.0 0.00 0.00 0.00 65 1008.3
20260906050016 77 125 0.0 0.0 0.00 0.00 0.00 65 1008.4
20260906044516 77 107 0.0 0.0 0.00 0.00 0.00 63 1008.4
20260906043027 78 142 0.0 0.0 0.00 0.00 0.00 62 1008.3
20260906041515 79 131 0.0 0.0 0.00 0.00 0.00 61 1008.2
20260906040015 80 148 0.0 0.0 0.00 0.00 0.00 59 1008.2
20260906034514 80 165 0.0 0.0 0.00 0.00 0.00 58 1008.0
20260906033020 81 148 0.0 0.0 0.00 0.00 0.00 57 1008.0
20260906031515 82 157 0.0 0.0 0.00 0.00 0.00 56 1007.8
20260906030019 82 141 0.0 0.0 0.00 0.00 0.00 56 1007.9
20260906024512 82 147 0.0 0.0 0.00 0.00 0.00 55 1007.8
20260906023012 83 146 0.0 0.0 0.00 0.00 0.00 55 1007.5
20260906021512 84 144 0.0 0.0 0.00 0.00 0.00 53 1007.3
20260906020011 85 145 0.0 0.0 0.00 0.00 0.00 52 1007.3
20260906014511 86 143 0.0 0.0 0.00 0.00 0.00 50 1007.2
20260906013011 87 159 0.0 0.0 0.00 0.00 0.00 48 1007.2
20260906011510 89 145 0.0 0.0 0.00 0.00 0.00 46 1007.0
20260906010009 91 147 0.0 0.0 0.00 0.00 0.00 41 1007.1
20260906004509 92 114 0.0 0.0 0.00 0.00 0.00 38 1006.9
20260906003008 92 121 0.0 0.0 0.00 0.00 0.00 37 1006.6
20260906001516 93 132 0.0 0.0 0.00 0.00 0.00 36 1006.1
20260906000019 93 139 0.0 0.0 0.00 0.00 0.00 35 1006.1
20260905234508 94 147 0.0 0.0 0.00 0.00 0.00 35 1006.2
20260905233006 94 152 0.0 0.0 0.00 0.00 0.00 33 1006.0
20260905231506 94 144 0.0 0.0 0.00 0.00 0.00 33 1005.7
20260905230005 94 156 0.0 0.0 0.00 0.00 0.00 34 1005.7
20260905224505 95 150 0.0 0.0 0.00 0.00 0.00 33 1005.6
20260905223007 95 150 0.0 0.0 0.00 0.00 0.00 32 1005.8
20260905221502 96 136 0.0 0.0 0.00 0.00 0.00 32 1005.8
20260905220002 96 156 0.0 0.0 0.00 0.00 0.00 31 1005.9
20260905214603 96 120 0.0 0.0 0.00 0.00 0.00 31 1006.0
20260905213102 96 124 0.0 0.0 0.00 0.00 0.00 31 1006.1
20260905211600 96 144 0.0 0.0 0.00 0.00 0.00 32 1006.4
20260905210115 96 161 0.0 0.0 0.00 0.00 0.00 28 1006.6
20260905204602 96 154 0.0 0.0 0.00 0.00 0.00 31 1006.8
20260905203055 95 135 0.0 0.0 0.00 0.00 0.00 32 1006.9